This is the latest recevied weather packets stored in our database for station/object W6ORV. If no packets are shown the sender has not sent any weather packets the latest 10 day(s).
| Time | Temp. | Humidity | Pressure | Rain* | Wind** | Luminosity | Snow |
|---|---|---|---|---|---|---|---|
| 1777643451 | 6.67° C | 95% | 4299.6 hPa | 0 mm | - | 26 W/m² | - |
| 1777643148 | 6.67° C | 95% | 4299.5 hPa | 0 mm | - | 23 W/m² | - |
| 1777642844 | 7.22° C | 95% | 4299.5 hPa | 0 mm | - | 19 W/m² | - |
| 1777642542 | 7.22° C | 95% | 4299.4 hPa | 0 mm | - | 16 W/m² | - |
| 1777642238 | 7.22° C | 95% | 4299.4 hPa | 0 mm | - | 13 W/m² | - |
| 1777641935 | 7.22° C | 95% | 4299.3 hPa | 0 mm | - | 10 W/m² | - |
| 1777641631 | 7.22° C | 95% | 4299.1 hPa | 0 mm | - | 7 W/m² | - |
| 1777641326 | 7.22° C | 95% | 4299.2 hPa | 0 mm | - | 4 W/m² | - |
| 1777638899 | 6.67° C | 93% | 4299.2 hPa | 0 mm | - | 0 W/m² | - |
| 1777638594 | 6.67° C | 93% | 4299.4 hPa | 0 mm | - | 0 W/m² | - |
| 1777638291 | 7.22° C | 93% | 4299.1 hPa | 0 mm | - | 0 W/m² | - |
| 1777637987 | 7.22° C | 93% | 4299.1 hPa | 0 mm | - | 0 W/m² | - |
| 1777637381 | 8.33° C | 92% | 4299 hPa | 0 mm | - | 0 W/m² | - |
| 1777637077 | 8.89° C | 92% | 4298.8 hPa | 0 mm | - | 0 W/m² | - |
| 1777636773 | 8.89° C | 92% | 4298.8 hPa | 0 mm | - | 0 W/m² | - |
| 1777636470 | 8.33° C | 92% | 4299.1 hPa | 0 mm | - | 0 W/m² | - |
| 1777636166 | 8.33° C | 91% | 4298.8 hPa | 0 mm | - | 0 W/m² | - |
| 1777635861 | 8.33° C | 91% | 4298.9 hPa | 0 mm | - | 0 W/m² | - |
| 1777635557 | 8.89° C | 91% | 4299 hPa | 0 mm | - | 0 W/m² | - |
| 1777635255 | 8.33° C | 91% | 4298.9 hPa | 0 mm | - | 0 W/m² | - |
| 1777634951 | 8.89° C | 91% | 4298.9 hPa | 0 mm | - | 0 W/m² | - |
| 1777634648 | 8.89° C | 91% | 4299.2 hPa | 0 mm | - | 0 W/m² | - |
| 1777634345 | 8.89° C | 91% | 4298.8 hPa | 0 mm | - | 0 W/m² | - |
| 1777634041 | 8.33° C | 91% | 4299.3 hPa | 0 mm | - | 0 W/m² | - |
| 1777633738 | 8.33° C | 90% | 4298.9 hPa | 0 mm | - | 0 W/m² | - |
* Rain latest hour (hover to see other rain measurements)
** Current wind speed in m/s (hover to see current wind gust speed)